COSMOS 1275 DEB, 42181

Orbit data source: Space-Track

COSMOS 1275 DEB, 42181 is space debris in LEO originally from a launch on Thu, 04 Jun 1981 UTC launched from the Plesetsk Missile And Space Complex (PKMTR). Debris objects in space refer to the collection of defunct objects orbiting the Earth. Examples of debris include non-operational satellites, rocket bodies, and fragments generated from explosions, collisions, or faulty payload assembly.

Loading next visibility...
Identifier
42181, 1981-053SV
Orbit
LEO
Country
Flag of CISCIS
Related business
Manufacturer
Unknown
Mission
Spacecraft
Bus & Motor
Unknown
Mass
Unknown
Launch date (UTC)
1981-06-04 (45 years ago)
Launch vehicle
Unknown
Launch site
Plesetsk Missile And Space Complex (PKMTR)
Object type
Payload
Rocket body
Debris
Shape & HBR
Unknown shape, 0.1 m
Radar Cross Section
Small (<0.1 m²)

Expand to show TLE details & history
Last TLE update: 1 day ago

TLE from 1 day ago
0 COSMOS 1275 DEB
1 42181U 81053SV  25346.39708865  .00001180  00000-0  86598-3 0  9998
2 42181  82.9004 214.7635 0076004 282.5242  76.7429 13.93690595 52913
Epoch: 2025-12-12T09:31Z
TLE epoch observation values (Epoch: 2025-12-12T09:31:48.459Z)
Latitude
-0.00011°
Longitude
-9.52773°
Altitude
906.336 km
Speed
7.405 km/s
True Right ascension
14h 19m 03s
True Declination
0° 00' 00"
Sunlit
Object was in daylight at epoch
Visualization orbit readout
Latitude
Unknown
Longitude
Unknown
Altitude
Unknown
Speed
Unknown
Apparent Right ascension
Unknown
Apparent Declination
Unknown
Sunlit
N/A
Visualization observer readout
Local Sidereal Time
17:22:46
Azimuth
Unknown
Elevation
Unknown
Doppler factor
Unknown
Orbital elements
Apogee altitude
968.265 km
Perigee altitude
857.436 km
Semi-major axis
7,290.987 km
Eccentricity
0.0076
Inclination
82.9004°
RAAN
214.7635°
Arg. of periapsis
282.5242°
True anomaly
77.59245°
Mean anomaly
76.7429°
Eccentric anomaly
77.16749°
Mean motion
3.48629 °/min
Orbital period
103.26 mins
BSTAR
0.00086598
Loading maneuver chart data...
Computing Atmospheric mass density...
Loading historical data...
Loading historical data...
Loading historical data...
Loading historical data...
Loading historical data...
Loading historical data...
Loading historical data...

Documentation

Showing up to 5 results
|